TimeAKDT,TemperatureF,Dew PointF,Humidity,Sea Level PressureIn,VisibilityMPH,Wind Direction,Wind SpeedMPH,Gust SpeedMPH,PrecipitationIn,Events,Conditions,WindDirDegrees,DateUTC
12:53 AM,-18.0,-25.1,70,30.14,10.0,Calm,Calm,-,N/A,,Clear,0,2013-03-18 08:53:00
1:53 AM,-20.9,-27.9,70,30.13,10.0,Calm,Calm,-,N/A,,Clear,0,2013-03-18 09:53:00
2:53 AM,-22.0,-29.0,70,30.11,10.0,Calm,Calm,-,N/A,,Clear,0,2013-03-18 10:53:00
3:53 AM,-23.1,-29.9,70,30.10,10.0,Calm,Calm,-,N/A,,Clear,0,2013-03-18 11:53:00
4:53 AM,-25.1,-32.1,70,30.09,10.0,Calm,Calm,-,N/A,,Clear,0,2013-03-18 12:53:00
5:53 AM,-26.0,-33.0,69,30.08,10.0,Calm,Calm,-,N/A,,Clear,0,2013-03-18 13:53:00
6:53 AM,-27.0,-34.1,69,30.09,10.0,Calm,Calm,-,N/A,,Clear,0,2013-03-18 14:53:00
7:53 AM,-26.0,-33.0,69,30.09,10.0,Calm,Calm,-,N/A,,Clear,0,2013-03-18 15:53:00
8:53 AM,-20.9,-29.0,66,30.09,10.0,Calm,Calm,-,N/A,,Clear,0,2013-03-18 16:53:00
9:53 AM,-13.0,-20.9,68,30.07,10.0,Calm,Calm,-,N/A,,Scattered Clouds,0,2013-03-18 17:53:00
10:53 AM,-7.1,-17.0,62,30.06,10.0,Calm,Calm,-,N/A,,Partly Cloudy,0,2013-03-18 18:53:00
11:53 AM,1.9,-13.0,50,30.04,10.0,Calm,Calm,-,N/A,,Partly Cloudy,0,2013-03-18 19:53:00
12:53 PM,6.1,-9.9,48,30.04,10.0,Calm,Calm,-,N/A,,Scattered Clouds,0,2013-03-18 20:53:00
1:53 PM,10.0,-9.0,42,30.03,10.0,Calm,Calm,-,N/A,,Mostly Cloudy,0,2013-03-18 21:53:00
2:53 PM,12.9,-8.0,39,30.01,10.0,Calm,Calm,-,N/A,,Clear,0,2013-03-18 22:53:00
3:53 PM,15.1,-7.1,37,30.01,10.0,Calm,Calm,-,N/A,,Overcast,0,2013-03-18 23:53:00
4:53 PM,16.0,-9.0,32,30.01,10.0,Calm,Calm,-,N/A,,Overcast,0,2013-03-19 00:53:00
5:53 PM,15.1,-8.0,36,30.02,10.0,NE,3.5,-,N/A,,Partly Cloudy,50,2013-03-19 01:53:00
6:53 PM,10.9,-11.9,35,30.03,10.0,East,4.6,-,N/A,,Scattered Clouds,90,2013-03-19 02:53:00
7:53 PM,5.0,-14.1,41,30.05,10.0,Calm,Calm,-,N/A,,Mostly Cloudy,0,2013-03-19 03:53:00
8:53 PM,-5.1,-18.0,54,30.07,10.0,South,5.8,-,N/A,,Clear,170,2013-03-19 04:53:00
9:53 PM,-9.0,-20.0,59,30.08,10.0,Calm,Calm,-,N/A,,Clear,0,2013-03-19 05:53:00
10:53 PM,-13.0,-22.0,64,30.09,10.0,Calm,Calm,-,N/A,,Clear,0,2013-03-19 06:53:00
11:53 PM,-17.0,-25.1,67,30.10,10.0,Calm,Calm,-,N/A,,Clear,0,2013-03-19 07:53:00